#datetime,building,power
2022-12-25T00:00:00,axn,34.17
2022-12-25T00:01:00,axn,34.03
2022-12-25T00:02:00,axn,34.52
2022-12-25T00:03:00,axn,34.42
2022-12-25T00:04:00,axn,34.37
2022-12-25T00:05:00,axn,34.27
2022-12-25T00:06:00,axn,34.45
2022-12-25T00:07:00,axn,34.42
2022-12-25T00:08:00,axn,34.73
2022-12-25T00:09:00,axn,34.17
2022-12-25T00:10:00,axn,34.17
2022-12-25T00:11:00,axn,35.40
2022-12-25T00:12:00,axn,35.06
2022-12-25T00:13:00,axn,34.33
2022-12-25T00:14:00,axn,34.35
2022-12-25T00:15:00,axn,34.29
2022-12-25T00:16:00,axn,34.45
2022-12-25T00:17:00,axn,34.32
2022-12-25T00:18:00,axn,34.69
2022-12-25T00:19:00,axn,34.35
2022-12-25T00:20:00,axn,34.26
2022-12-25T00:21:00,axn,34.94
2022-12-25T00:22:00,axn,34.63
2022-12-25T00:23:00,axn,34.53
2022-12-25T00:24:00,axn,34.24
2022-12-25T00:25:00,axn,34.23
2022-12-25T00:26:00,axn,34.66
2022-12-25T00:27:00,axn,34.38
2022-12-25T00:28:00,axn,34.62
2022-12-25T00:29:00,axn,34.14
2022-12-25T00:30:00,axn,34.22
2022-12-25T00:31:00,axn,34.11
2022-12-25T00:32:00,axn,37.27
2022-12-25T00:33:00,axn,33.86
2022-12-25T00:34:00,axn,33.66
2022-12-25T00:35:00,axn,33.67
2022-12-25T00:36:00,axn,33.82
2022-12-25T00:37:00,axn,33.69
2022-12-25T00:38:00,axn,33.67
2022-12-25T00:39:00,axn,33.57
2022-12-25T00:40:00,axn,33.73
2022-12-25T00:41:00,axn,34.29
2022-12-25T00:42:00,axn,34.26
2022-12-25T00:43:00,axn,34.68
2022-12-25T00:44:00,axn,34.44
2022-12-25T00:45:00,axn,34.24
2022-12-25T00:46:00,axn,34.27
2022-12-25T00:47:00,axn,34.64
2022-12-25T00:48:00,axn,34.30
2022-12-25T00:49:00,axn,34.35
2022-12-25T00:50:00,axn,34.41
2022-12-25T00:51:00,axn,34.55
2022-12-25T00:52:00,axn,34.70
2022-12-25T00:53:00,axn,35.07
2022-12-25T00:54:00,axn,34.58
2022-12-25T00:55:00,axn,39.21
2022-12-25T00:56:00,axn,39.17
2022-12-25T00:57:00,axn,38.67
2022-12-25T00:58:00,axn,33.98
2022-12-25T00:59:00,axn,33.96
2022-12-25T01:00:00,axn,34.27
2022-12-25T01:01:00,axn,34.96
2022-12-25T01:02:00,axn,34.65
2022-12-25T01:03:00,axn,31.22
2022-12-25T01:04:00,axn,31.29
2022-12-25T01:05:00,axn,30.04
2022-12-25T01:06:00,axn,30.06
2022-12-25T01:07:00,axn,30.16
2022-12-25T01:08:00,axn,30.31
2022-12-25T01:09:00,axn,30.18
2022-12-25T01:10:00,axn,30.23
2022-12-25T01:11:00,axn,30.14
2022-12-25T01:12:00,axn,30.18
2022-12-25T01:13:00,axn,30.07
2022-12-25T01:14:00,axn,29.75
2022-12-25T01:15:00,axn,29.77
2022-12-25T01:16:00,axn,29.72
2022-12-25T01:17:00,axn,29.36
2022-12-25T01:18:00,axn,29.83
2022-12-25T01:19:00,axn,29.66
2022-12-25T01:20:00,axn,29.57
2022-12-25T01:21:00,axn,29.62
2022-12-25T01:22:00,axn,29.96
2022-12-25T01:23:00,axn,29.87
2022-12-25T01:24:00,axn,30.22
2022-12-25T01:25:00,axn,29.70
2022-12-25T01:26:00,axn,29.79
2022-12-25T01:27:00,axn,29.97
2022-12-25T01:28:00,axn,30.35
2022-12-25T01:29:00,axn,30.04
2022-12-25T01:30:00,axn,30.21
2022-12-25T01:31:00,axn,30.18
2022-12-25T01:32:00,axn,30.05
2022-12-25T01:33:00,axn,29.88
2022-12-25T01:34:00,axn,30.00
2022-12-25T01:35:00,axn,30.11
2022-12-25T01:36:00,axn,30.29
2022-12-25T01:37:00,axn,30.33
2022-12-25T01:38:00,axn,30.22
2022-12-25T01:39:00,axn,30.08
2022-12-25T01:40:00,axn,30.06
2022-12-25T01:41:00,axn,29.95
2022-12-25T01:42:00,axn,29.73
2022-12-25T01:43:00,axn,29.54
2022-12-25T01:44:00,axn,29.66
2022-12-25T01:45:00,axn,29.51
2022-12-25T01:46:00,axn,44.43
2022-12-25T01:47:00,axn,44.06
2022-12-25T01:48:00,axn,43.97
2022-12-25T01:49:00,axn,43.94
2022-12-25T01:50:00,axn,44.33
2022-12-25T01:51:00,axn,29.81
2022-12-25T01:52:00,axn,30.00
2022-12-25T01:53:00,axn,29.85
2022-12-25T01:54:00,axn,29.81
2022-12-25T01:55:00,axn,29.52
2022-12-25T01:56:00,axn,29.61
2022-12-25T01:57:00,axn,29.49
2022-12-25T01:58:00,axn,29.45
2022-12-25T01:59:00,axn,39.99
2022-12-25T02:00:00,axn,40.01
2022-12-25T02:01:00,axn,39.92
2022-12-25T02:02:00,axn,40.06
2022-12-25T02:03:00,axn,29.56
2022-12-25T02:04:00,axn,29.31
2022-12-25T02:05:00,axn,29.13
2022-12-25T02:06:00,axn,29.25
2022-12-25T02:07:00,axn,29.48
2022-12-25T02:08:00,axn,29.57
2022-12-25T02:09:00,axn,29.75
2022-12-25T02:10:00,axn,29.69
2022-12-25T02:11:00,axn,29.92
2022-12-25T02:12:00,axn,29.80
2022-12-25T02:13:00,axn,29.65
2022-12-25T02:14:00,axn,29.46
2022-12-25T02:15:00,axn,29.50
2022-12-25T02:16:00,axn,29.64
2022-12-25T02:17:00,axn,29.63
2022-12-25T02:18:00,axn,29.72
2022-12-25T02:19:00,axn,30.39
2022-12-25T02:20:00,axn,29.70
2022-12-25T02:21:00,axn,29.73
2022-12-25T02:22:00,axn,30.02
2022-12-25T02:23:00,axn,29.88
2022-12-25T02:24:00,axn,29.89
2022-12-25T02:25:00,axn,30.08
2022-12-25T02:26:00,axn,29.51
2022-12-25T02:27:00,axn,29.38
2022-12-25T02:28:00,axn,29.27
2022-12-25T02:29:00,axn,32.02
2022-12-25T02:30:00,axn,34.32
2022-12-25T02:31:00,axn,34.44
2022-12-25T02:32:00,axn,34.15
2022-12-25T02:33:00,axn,34.15
2022-12-25T02:34:00,axn,34.43
2022-12-25T02:35:00,axn,33.93
2022-12-25T02:36:00,axn,33.82
2022-12-25T02:37:00,axn,33.58
2022-12-25T02:38:00,axn,33.64
2022-12-25T02:39:00,axn,33.84
2022-12-25T02:40:00,axn,33.88
2022-12-25T02:41:00,axn,34.08
2022-12-25T02:42:00,axn,34.13
2022-12-25T02:43:00,axn,34.09
2022-12-25T02:44:00,axn,34.37
2022-12-25T02:45:00,axn,37.17
2022-12-25T02:46:00,axn,37.25
2022-12-25T02:47:00,axn,37.04
2022-12-25T02:48:00,axn,34.11
2022-12-25T02:49:00,axn,34.11
2022-12-25T02:50:00,axn,34.15
2022-12-25T02:51:00,axn,34.20
2022-12-25T02:52:00,axn,34.52
2022-12-25T02:53:00,axn,34.48
2022-12-25T02:54:00,axn,34.52
2022-12-25T02:55:00,axn,34.64
2022-12-25T02:56:00,axn,34.94
2022-12-25T02:57:00,axn,34.83
2022-12-25T02:58:00,axn,34.71
2022-12-25T02:59:00,axn,35.20
2022-12-25T03:00:00,axn,34.76
2022-12-25T03:01:00,axn,34.77
2022-12-25T03:02:00,axn,34.70
2022-12-25T03:03:00,axn,34.60
2022-12-25T03:04:00,axn,34.62
2022-12-25T03:05:00,axn,34.47
2022-12-25T03:06:00,axn,34.43
2022-12-25T03:07:00,axn,40.26
2022-12-25T03:08:00,axn,40.30
2022-12-25T03:09:00,axn,40.34
2022-12-25T03:10:00,axn,34.32
2022-12-25T03:11:00,axn,34.15
2022-12-25T03:12:00,axn,34.01
2022-12-25T03:13:00,axn,34.06
2022-12-25T03:14:00,axn,34.02
2022-12-25T03:15:00,axn,33.98
2022-12-25T03:16:00,axn,33.92
2022-12-25T03:17:00,axn,34.00
2022-12-25T03:18:00,axn,33.96
2022-12-25T03:19:00,axn,34.01
2022-12-25T03:20:00,axn,34.14
2022-12-25T03:21:00,axn,34.06
2022-12-25T03:22:00,axn,33.98
2022-12-25T03:23:00,axn,33.90
2022-12-25T03:24:00,axn,33.61
2022-12-25T03:25:00,axn,33.71
2022-12-25T03:26:00,axn,36.71
2022-12-25T03:27:00,axn,36.98
2022-12-25T03:28:00,axn,34.43
2022-12-25T03:29:00,axn,34.14
2022-12-25T03:30:00,axn,34.11
2022-12-25T03:31:00,axn,33.97
2022-12-25T03:32:00,axn,33.78
2022-12-25T03:33:00,axn,33.73
2022-12-25T03:34:00,axn,33.87
2022-12-25T03:35:00,axn,33.40
2022-12-25T03:36:00,axn,33.34
2022-12-25T03:37:00,axn,33.43
2022-12-25T03:38:00,axn,33.37
2022-12-25T03:39:00,axn,33.51
2022-12-25T03:40:00,axn,33.40
2022-12-25T03:41:00,axn,33.44
2022-12-25T03:42:00,axn,33.91
2022-12-25T03:43:00,axn,33.65
2022-12-25T03:44:00,axn,33.77
2022-12-25T03:45:00,axn,34.05
2022-12-25T03:46:00,axn,33.83
2022-12-25T03:47:00,axn,33.13
2022-12-25T03:48:00,axn,33.24
2022-12-25T03:49:00,axn,33.47
2022-12-25T03:50:00,axn,33.76
2022-12-25T03:51:00,axn,33.40
2022-12-25T03:52:00,axn,33.52
2022-12-25T03:53:00,axn,33.43
2022-12-25T03:54:00,axn,33.65
2022-12-25T03:55:00,axn,33.28
2022-12-25T03:56:00,axn,33.52
2022-12-25T03:57:00,axn,33.50
2022-12-25T03:58:00,axn,33.26
2022-12-25T03:59:00,axn,32.90
2022-12-25T04:00:00,axn,32.87
2022-12-25T04:01:00,axn,33.46
2022-12-25T04:02:00,axn,33.66
2022-12-25T04:03:00,axn,30.65
2022-12-25T04:04:00,axn,30.64
2022-12-25T04:05:00,axn,29.39
2022-12-25T04:06:00,axn,29.40
2022-12-25T04:07:00,axn,29.17
2022-12-25T04:08:00,axn,29.29
2022-12-25T04:09:00,axn,29.18
2022-12-25T04:10:00,axn,29.10
2022-12-25T04:11:00,axn,29.00
2022-12-25T04:12:00,axn,29.06
2022-12-25T04:13:00,axn,29.03
2022-12-25T04:14:00,axn,29.39
2022-12-25T04:15:00,axn,29.28
2022-12-25T04:16:00,axn,29.40
2022-12-25T04:17:00,axn,29.11
2022-12-25T04:18:00,axn,29.15
2022-12-25T04:19:00,axn,29.25
2022-12-25T04:20:00,axn,29.12
2022-12-25T04:21:00,axn,29.50
2022-12-25T04:22:00,axn,29.20
2022-12-25T04:23:00,axn,29.05
2022-12-25T04:24:00,axn,29.06
2022-12-25T04:25:00,axn,29.17
2022-12-25T04:26:00,axn,29.16
2022-12-25T04:27:00,axn,29.19
2022-12-25T04:28:00,axn,29.04
2022-12-25T04:29:00,axn,29.28
2022-12-25T04:30:00,axn,29.34
2022-12-25T04:31:00,axn,29.39
2022-12-25T04:32:00,axn,29.91
2022-12-25T04:33:00,axn,30.05
2022-12-25T04:34:00,axn,30.18
2022-12-25T04:35:00,axn,29.74
2022-12-25T04:36:00,axn,29.63
2022-12-25T04:37:00,axn,29.50
2022-12-25T04:38:00,axn,29.58
2022-12-25T04:39:00,axn,29.36
2022-12-25T04:40:00,axn,29.31
2022-12-25T04:41:00,axn,29.61
2022-12-25T04:42:00,axn,29.24
2022-12-25T04:43:00,axn,29.20
2022-12-25T04:44:00,axn,29.35
2022-12-25T04:45:00,axn,40.25
2022-12-25T04:46:00,axn,29.15
2022-12-25T04:47:00,axn,29.18
2022-12-25T04:48:00,axn,29.26
2022-12-25T04:49:00,axn,29.39
2022-12-25T04:50:00,axn,29.21
2022-12-25T04:51:00,axn,29.22
2022-12-25T04:52:00,axn,29.66
2022-12-25T04:53:00,axn,29.35
2022-12-25T04:54:00,axn,29.52
2022-12-25T04:55:00,axn,29.16
2022-12-25T04:56:00,axn,29.05
2022-12-25T04:57:00,axn,29.53
2022-12-25T04:58:00,axn,29.70
2022-12-25T04:59:00,axn,29.75
2022-12-25T05:00:00,axn,29.81
2022-12-25T05:01:00,axn,29.74
2022-12-25T05:02:00,axn,29.89
2022-12-25T05:03:00,axn,29.93
2022-12-25T05:04:00,axn,29.76
2022-12-25T05:05:00,axn,29.70
2022-12-25T05:06:00,axn,29.79
2022-12-25T05:07:00,axn,29.69
2022-12-25T05:08:00,axn,29.70
2022-12-25T05:09:00,axn,29.59
2022-12-25T05:10:00,axn,29.54
2022-12-25T05:11:00,axn,29.43
2022-12-25T05:12:00,axn,29.45
2022-12-25T05:13:00,axn,29.58
2022-12-25T05:14:00,axn,29.76
2022-12-25T05:15:00,axn,29.90
2022-12-25T05:16:00,axn,29.99
2022-12-25T05:17:00,axn,30.20
2022-12-25T05:18:00,axn,40.55
2022-12-25T05:19:00,axn,40.29
2022-12-25T05:20:00,axn,40.56
2022-12-25T05:21:00,axn,40.73
2022-12-25T05:22:00,axn,40.34
2022-12-25T05:23:00,axn,30.06
2022-12-25T05:24:00,axn,30.06
2022-12-25T05:25:00,axn,29.94
2022-12-25T05:26:00,axn,29.95
2022-12-25T05:27:00,axn,29.96
2022-12-25T05:28:00,axn,29.93
2022-12-25T05:29:00,axn,29.82
2022-12-25T05:30:00,axn,29.75
2022-12-25T05:31:00,axn,30.07
2022-12-25T05:32:00,axn,30.56
2022-12-25T05:33:00,axn,30.19
2022-12-25T05:34:00,axn,30.19
2022-12-25T05:35:00,axn,29.90
2022-12-25T05:36:00,axn,29.81
2022-12-25T05:37:00,axn,30.18
2022-12-25T05:38:00,axn,29.95
2022-12-25T05:39:00,axn,33.62
2022-12-25T05:40:00,axn,34.98
2022-12-25T05:41:00,axn,33.84
2022-12-25T05:42:00,axn,35.02
2022-12-25T05:43:00,axn,35.05
2022-12-25T05:44:00,axn,35.56
2022-12-25T05:45:00,axn,34.84
2022-12-25T05:46:00,axn,34.87
2022-12-25T05:47:00,axn,34.70
2022-12-25T05:48:00,axn,34.63
2022-12-25T05:49:00,axn,34.85
2022-12-25T05:50:00,axn,34.69
2022-12-25T05:51:00,axn,34.79
2022-12-25T05:52:00,axn,34.44
2022-12-25T05:53:00,axn,37.17
2022-12-25T05:54:00,axn,37.44
2022-12-25T05:55:00,axn,37.57
2022-12-25T05:56:00,axn,49.29
2022-12-25T05:57:00,axn,49.33
2022-12-25T05:58:00,axn,49.20
2022-12-25T05:59:00,axn,49.27
2022-12-25T06:00:00,axn,48.78
2022-12-25T06:01:00,axn,35.44
2022-12-25T06:02:00,axn,34.77
2022-12-25T06:03:00,axn,34.81
2022-12-25T06:04:00,axn,34.99
2022-12-25T06:05:00,axn,38.08
2022-12-25T06:06:00,axn,37.86
2022-12-25T06:07:00,axn,34.66
2022-12-25T06:08:00,axn,34.94
2022-12-25T06:09:00,axn,34.98
2022-12-25T06:10:00,axn,34.35
2022-12-25T06:11:00,axn,34.18
2022-12-25T06:12:00,axn,34.09
2022-12-25T06:13:00,axn,34.18
2022-12-25T06:14:00,axn,34.40
2022-12-25T06:15:00,axn,34.29
2022-12-25T06:16:00,axn,34.14
2022-12-25T06:17:00,axn,33.89
2022-12-25T06:18:00,axn,34.02
2022-12-25T06:19:00,axn,34.64
2022-12-25T06:20:00,axn,34.45
2022-12-25T06:21:00,axn,34.63
2022-12-25T06:22:00,axn,34.33
2022-12-25T06:23:00,axn,34.16
2022-12-25T06:24:00,axn,34.03
2022-12-25T06:25:00,axn,33.87
2022-12-25T06:26:00,axn,33.95
2022-12-25T06:27:00,axn,33.69
2022-12-25T06:28:00,axn,33.60
2022-12-25T06:29:00,axn,33.34
2022-12-25T06:30:00,axn,33.36
2022-12-25T06:31:00,axn,34.59
2022-12-25T06:32:00,axn,33.37
2022-12-25T06:33:00,axn,33.62
2022-12-25T06:34:00,axn,34.90
2022-12-25T06:35:00,axn,33.07
2022-12-25T06:36:00,axn,32.63
2022-12-25T06:37:00,axn,33.14
2022-12-25T06:38:00,axn,33.03
2022-12-25T06:39:00,axn,32.72
2022-12-25T06:40:00,axn,32.80
2022-12-25T06:41:00,axn,32.83
2022-12-25T06:42:00,axn,32.83
2022-12-25T06:43:00,axn,32.83
2022-12-25T06:44:00,axn,32.71
2022-12-25T06:45:00,axn,32.67
2022-12-25T06:46:00,axn,40.83
2022-12-25T06:47:00,axn,40.86
2022-12-25T06:48:00,axn,40.78
2022-12-25T06:49:00,axn,40.80
2022-12-25T06:50:00,axn,40.89
2022-12-25T06:51:00,axn,40.83
2022-12-25T06:52:00,axn,41.00
2022-12-25T06:53:00,axn,41.04
2022-12-25T06:54:00,axn,41.09
2022-12-25T06:55:00,axn,41.01
2022-12-25T06:56:00,axn,41.13
2022-12-25T06:57:00,axn,41.23
2022-12-25T06:58:00,axn,41.19
2022-12-25T06:59:00,axn,41.09
2022-12-25T07:00:00,axn,41.03
2022-12-25T07:01:00,axn,41.07
2022-12-25T07:02:00,axn,41.01
2022-12-25T07:03:00,axn,40.69
2022-12-25T07:04:00,axn,41.17
2022-12-25T07:05:00,axn,40.89
2022-12-25T07:06:00,axn,32.76
2022-12-25T07:07:00,axn,32.73
2022-12-25T07:08:00,axn,32.57
2022-12-25T07:09:00,axn,32.54
2022-12-25T07:10:00,axn,32.35
2022-12-25T07:11:00,axn,32.15
2022-12-25T07:12:00,axn,32.11
2022-12-25T07:13:00,axn,31.98
2022-12-25T07:14:00,axn,32.04
2022-12-25T07:15:00,axn,31.94
2022-12-25T07:16:00,axn,31.75
2022-12-25T07:17:00,axn,31.67
2022-12-25T07:18:00,axn,31.87
2022-12-25T07:19:00,axn,32.55
2022-12-25T07:20:00,axn,32.26
2022-12-25T07:21:00,axn,32.99
2022-12-25T07:22:00,axn,32.84
2022-12-25T07:23:00,axn,32.54
2022-12-25T07:24:00,axn,34.33
2022-12-25T07:25:00,axn,32.84
2022-12-25T07:26:00,axn,32.78
2022-12-25T07:27:00,axn,32.55
2022-12-25T07:28:00,axn,32.52
2022-12-25T07:29:00,axn,30.05
2022-12-25T07:30:00,axn,30.12
2022-12-25T07:31:00,axn,28.91
2022-12-25T07:32:00,axn,28.97
2022-12-25T07:33:00,axn,28.78
2022-12-25T07:34:00,axn,28.85
2022-12-25T07:35:00,axn,28.80
2022-12-25T07:36:00,axn,28.91
2022-12-25T07:37:00,axn,28.88
2022-12-25T07:38:00,axn,28.66
2022-12-25T07:39:00,axn,28.63
2022-12-25T07:40:00,axn,28.77
2022-12-25T07:41:00,axn,28.80
2022-12-25T07:42:00,axn,28.76
2022-12-25T07:43:00,axn,28.69
2022-12-25T07:44:00,axn,28.62
2022-12-25T07:45:00,axn,28.61
2022-12-25T07:46:00,axn,28.70
2022-12-25T07:47:00,axn,28.89
2022-12-25T07:48:00,axn,28.94
2022-12-25T07:49:00,axn,28.80
2022-12-25T07:50:00,axn,28.73
2022-12-25T07:51:00,axn,28.80
2022-12-25T07:52:00,axn,29.23
2022-12-25T07:53:00,axn,28.98
2022-12-25T07:54:00,axn,28.99
2022-12-25T07:55:00,axn,28.98
2022-12-25T07:56:00,axn,28.82
2022-12-25T07:57:00,axn,28.81
2022-12-25T07:58:00,axn,28.91
2022-12-25T07:59:00,axn,28.88
2022-12-25T08:00:00,axn,28.82
2022-12-25T08:01:00,axn,28.84
2022-12-25T08:02:00,axn,28.88
2022-12-25T08:03:00,axn,28.61
2022-12-25T08:04:00,axn,28.65
2022-12-25T08:05:00,axn,28.32
2022-12-25T08:06:00,axn,28.73
2022-12-25T08:07:00,axn,28.77
2022-12-25T08:08:00,axn,28.86
2022-12-25T08:09:00,axn,29.41
2022-12-25T08:10:00,axn,29.09
2022-12-25T08:11:00,axn,28.25
2022-12-25T08:12:00,axn,28.30
2022-12-25T08:13:00,axn,28.90
2022-12-25T08:14:00,axn,28.30
2022-12-25T08:15:00,axn,28.28
2022-12-25T08:16:00,axn,28.27
2022-12-25T08:17:00,axn,30.61
2022-12-25T08:18:00,axn,32.67
2022-12-25T08:19:00,axn,32.79
2022-12-25T08:20:00,axn,33.28
2022-12-25T08:21:00,axn,28.75
2022-12-25T08:22:00,axn,28.50
2022-12-25T08:23:00,axn,29.04
2022-12-25T08:24:00,axn,28.92
2022-12-25T08:25:00,axn,28.96
2022-12-25T08:26:00,axn,29.04
2022-12-25T08:27:00,axn,28.88
2022-12-25T08:28:00,axn,28.75
2022-12-25T08:29:00,axn,28.80
2022-12-25T08:30:00,axn,28.85
2022-12-25T08:31:00,axn,28.93
2022-12-25T08:32:00,axn,28.79
2022-12-25T08:33:00,axn,29.02
2022-12-25T08:34:00,axn,29.22
2022-12-25T08:35:00,axn,29.30
2022-12-25T08:36:00,axn,29.38
2022-12-25T08:37:00,axn,29.50
2022-12-25T08:38:00,axn,29.35
2022-12-25T08:39:00,axn,39.61
2022-12-25T08:40:00,axn,39.52
2022-12-25T08:41:00,axn,39.55
2022-12-25T08:42:00,axn,39.50
2022-12-25T08:43:00,axn,29.52
2022-12-25T08:44:00,axn,29.54
2022-12-25T08:45:00,axn,29.36
2022-12-25T08:46:00,axn,29.35
2022-12-25T08:47:00,axn,29.08
2022-12-25T08:48:00,axn,29.03
2022-12-25T08:49:00,axn,29.00
2022-12-25T08:50:00,axn,29.00
2022-12-25T08:51:00,axn,28.93
2022-12-25T08:52:00,axn,28.99
2022-12-25T08:53:00,axn,32.49
2022-12-25T08:54:00,axn,33.87
2022-12-25T08:55:00,axn,34.63
2022-12-25T08:56:00,axn,32.17
2022-12-25T08:57:00,axn,34.73
2022-12-25T08:58:00,axn,31.37
2022-12-25T08:59:00,axn,34.50
2022-12-25T09:00:00,axn,33.99
2022-12-25T09:01:00,axn,32.71
2022-12-25T09:02:00,axn,32.83
2022-12-25T09:03:00,axn,36.20
2022-12-25T09:04:00,axn,35.97
2022-12-25T09:05:00,axn,36.20
2022-12-25T09:06:00,axn,33.45
2022-12-25T09:07:00,axn,32.92
2022-12-25T09:08:00,axn,33.59
2022-12-25T09:09:00,axn,33.09
2022-12-25T09:10:00,axn,33.01
2022-12-25T09:11:00,axn,33.17
2022-12-25T09:12:00,axn,33.19
2022-12-25T09:13:00,axn,33.24
2022-12-25T09:14:00,axn,33.47
2022-12-25T09:15:00,axn,33.21
2022-12-25T09:16:00,axn,33.08
2022-12-25T09:17:00,axn,33.44
2022-12-25T09:18:00,axn,33.29
2022-12-25T09:19:00,axn,33.15
2022-12-25T09:20:00,axn,33.18
2022-12-25T09:21:00,axn,33.19
2022-12-25T09:22:00,axn,33.46
2022-12-25T09:23:00,axn,33.68
2022-12-25T09:24:00,axn,33.57
2022-12-25T09:25:00,axn,33.04
2022-12-25T09:26:00,axn,32.96
2022-12-25T09:27:00,axn,33.08
2022-12-25T09:28:00,axn,32.94
2022-12-25T09:29:00,axn,33.01
2022-12-25T09:30:00,axn,32.82
2022-12-25T09:31:00,axn,32.80
2022-12-25T09:32:00,axn,32.60
2022-12-25T09:33:00,axn,32.81
2022-12-25T09:34:00,axn,32.76
2022-12-25T09:35:00,axn,32.95
2022-12-25T09:36:00,axn,32.72
2022-12-25T09:37:00,axn,32.63
2022-12-25T09:38:00,axn,32.64
2022-12-25T09:39:00,axn,32.68
2022-12-25T09:40:00,axn,32.91
2022-12-25T09:41:00,axn,33.41
2022-12-25T09:42:00,axn,33.24
2022-12-25T09:43:00,axn,33.46
2022-12-25T09:44:00,axn,33.28
2022-12-25T09:45:00,axn,33.11
2022-12-25T09:46:00,axn,32.98
2022-12-25T09:47:00,axn,30.28
2022-12-25T09:48:00,axn,30.22
2022-12-25T09:49:00,axn,29.10
2022-12-25T09:50:00,axn,29.10
2022-12-25T09:51:00,axn,29.01
2022-12-25T09:52:00,axn,29.06
2022-12-25T09:53:00,axn,28.99
2022-12-25T09:54:00,axn,29.15
2022-12-25T09:55:00,axn,29.35
2022-12-25T09:56:00,axn,29.19
2022-12-25T09:57:00,axn,29.02
2022-12-25T09:58:00,axn,29.18
2022-12-25T09:59:00,axn,29.28
2022-12-25T10:00:00,axn,29.70
2022-12-25T10:01:00,axn,29.89
2022-12-25T10:02:00,axn,29.81
2022-12-25T10:03:00,axn,29.81
2022-12-25T10:04:00,axn,30.25
2022-12-25T10:05:00,axn,30.07
2022-12-25T10:06:00,axn,30.06
2022-12-25T10:07:00,axn,29.89
2022-12-25T10:08:00,axn,29.63
2022-12-25T10:09:00,axn,44.07
2022-12-25T10:10:00,axn,44.27
2022-12-25T10:11:00,axn,43.74
2022-12-25T10:12:00,axn,43.51
2022-12-25T10:13:00,axn,43.34
2022-12-25T10:14:00,axn,29.47
2022-12-25T10:15:00,axn,35.02
2022-12-25T10:16:00,axn,29.38
2022-12-25T10:17:00,axn,29.42
2022-12-25T10:18:00,axn,29.61
2022-12-25T10:19:00,axn,29.50
2022-12-25T10:20:00,axn,29.57
2022-12-25T10:21:00,axn,29.31
2022-12-25T10:22:00,axn,29.49
2022-12-25T10:23:00,axn,29.40
2022-12-25T10:24:00,axn,29.49
2022-12-25T10:25:00,axn,29.39
2022-12-25T10:26:00,axn,29.28
2022-12-25T10:27:00,axn,29.19
2022-12-25T10:28:00,axn,29.52
2022-12-25T10:29:00,axn,29.31
2022-12-25T10:30:00,axn,29.30
2022-12-25T10:31:00,axn,29.27
2022-12-25T10:32:00,axn,29.42
2022-12-25T10:33:00,axn,29.40
2022-12-25T10:34:00,axn,29.31
2022-12-25T10:35:00,axn,28.96
2022-12-25T10:36:00,axn,28.67
2022-12-25T10:37:00,axn,28.85
2022-12-25T10:38:00,axn,28.94
2022-12-25T10:39:00,axn,29.02
2022-12-25T10:40:00,axn,29.37
2022-12-25T10:41:00,axn,29.33
2022-12-25T10:42:00,axn,29.35
2022-12-25T10:43:00,axn,29.26
2022-12-25T10:44:00,axn,29.44
2022-12-25T10:45:00,axn,30.00
2022-12-25T10:46:00,axn,29.70
2022-12-25T10:47:00,axn,29.62
2022-12-25T10:48:00,axn,29.64
2022-12-25T10:49:00,axn,29.68
2022-12-25T10:50:00,axn,29.38
2022-12-25T10:51:00,axn,29.09
2022-12-25T10:52:00,axn,28.79
2022-12-25T10:53:00,axn,28.70
2022-12-25T10:54:00,axn,28.90
2022-12-25T10:55:00,axn,28.79
2022-12-25T10:56:00,axn,28.73
2022-12-25T10:57:00,axn,28.64
2022-12-25T10:58:00,axn,28.64
2022-12-25T10:59:00,axn,28.63
2022-12-25T11:00:00,axn,28.91
2022-12-25T11:01:00,axn,28.68
2022-12-25T11:02:00,axn,28.58
2022-12-25T11:03:00,axn,28.66
2022-12-25T11:04:00,axn,28.88
2022-12-25T11:05:00,axn,29.67
2022-12-25T11:06:00,axn,35.12
2022-12-25T11:07:00,axn,34.78
2022-12-25T11:08:00,axn,34.72
2022-12-25T11:09:00,axn,34.76
2022-12-25T11:10:00,axn,28.65
2022-12-25T11:11:00,axn,28.70
2022-12-25T11:12:00,axn,29.12
2022-12-25T11:13:00,axn,28.81
2022-12-25T11:14:00,axn,28.96
2022-12-25T11:15:00,axn,28.91
2022-12-25T11:16:00,axn,28.97
2022-12-25T11:17:00,axn,29.12
2022-12-25T11:18:00,axn,29.16
2022-12-25T11:19:00,axn,29.03
2022-12-25T11:20:00,axn,29.57
2022-12-25T11:21:00,axn,28.78
2022-12-25T11:22:00,axn,28.60
2022-12-25T11:23:00,axn,28.64
2022-12-25T11:24:00,axn,29.03
2022-12-25T11:25:00,axn,29.04
2022-12-25T11:26:00,axn,29.04
2022-12-25T11:27:00,axn,29.04
2022-12-25T11:28:00,axn,29.15
2022-12-25T11:29:00,axn,28.89
2022-12-25T11:30:00,axn,28.91
2022-12-25T11:31:00,axn,28.86
2022-12-25T11:32:00,axn,29.64
2022-12-25T11:33:00,axn,33.26
2022-12-25T11:34:00,axn,34.63
2022-12-25T11:35:00,axn,36.22
2022-12-25T11:36:00,axn,34.45
2022-12-25T11:37:00,axn,34.03
2022-12-25T11:38:00,axn,33.91
2022-12-25T11:39:00,axn,33.86
2022-12-25T11:40:00,axn,33.90
2022-12-25T11:41:00,axn,33.84
2022-12-25T11:42:00,axn,34.02
2022-12-25T11:43:00,axn,33.79
2022-12-25T11:44:00,axn,33.92
2022-12-25T11:45:00,axn,33.92
2022-12-25T11:46:00,axn,33.86
2022-12-25T11:47:00,axn,34.06
2022-12-25T11:48:00,axn,33.97
2022-12-25T11:49:00,axn,33.68
2022-12-25T11:50:00,axn,33.47
2022-12-25T11:51:00,axn,33.71
2022-12-25T11:52:00,axn,36.83
2022-12-25T11:53:00,axn,34.13
2022-12-25T11:54:00,axn,33.69
2022-12-25T11:55:00,axn,33.69
2022-12-25T11:56:00,axn,41.91
2022-12-25T11:57:00,axn,41.71
2022-12-25T11:58:00,axn,41.83
2022-12-25T11:59:00,axn,41.81
2022-12-25T12:00:00,axn,41.58
2022-12-25T12:01:00,axn,41.77
2022-12-25T12:02:00,axn,41.84
2022-12-25T12:03:00,axn,41.96
2022-12-25T12:04:00,axn,52.61
2022-12-25T12:05:00,axn,52.24
2022-12-25T12:06:00,axn,52.19
2022-12-25T12:07:00,axn,52.42
2022-12-25T12:08:00,axn,41.99
2022-12-25T12:09:00,axn,44.78
2022-12-25T12:10:00,axn,44.99
2022-12-25T12:11:00,axn,41.89
2022-12-25T12:12:00,axn,38.80
2022-12-25T12:13:00,axn,38.10
2022-12-25T12:14:00,axn,38.05
2022-12-25T12:15:00,axn,37.99
2022-12-25T12:16:00,axn,29.69
2022-12-25T12:17:00,axn,29.39
2022-12-25T12:18:00,axn,29.33
2022-12-25T12:19:00,axn,29.63
2022-12-25T12:20:00,axn,29.22
2022-12-25T12:21:00,axn,29.60
2022-12-25T12:22:00,axn,29.47
2022-12-25T12:23:00,axn,29.33
2022-12-25T12:24:00,axn,29.16
2022-12-25T12:25:00,axn,29.06
2022-12-25T12:26:00,axn,29.21
2022-12-25T12:27:00,axn,29.35
2022-12-25T12:28:00,axn,29.37
2022-12-25T12:29:00,axn,29.19
2022-12-25T12:30:00,axn,28.81
2022-12-25T12:31:00,axn,29.13
2022-12-25T12:32:00,axn,28.65
2022-12-25T12:33:00,axn,28.59
2022-12-25T12:34:00,axn,28.76
2022-12-25T12:35:00,axn,28.82
2022-12-25T12:36:00,axn,28.78
2022-12-25T12:37:00,axn,28.86
2022-12-25T12:38:00,axn,29.02
2022-12-25T12:39:00,axn,28.77
2022-12-25T12:40:00,axn,28.95
2022-12-25T12:41:00,axn,28.78
2022-12-25T12:42:00,axn,28.85
2022-12-25T12:43:00,axn,29.07
2022-12-25T12:44:00,axn,29.38
2022-12-25T12:45:00,axn,28.98
2022-12-25T12:46:00,axn,28.97
2022-12-25T12:47:00,axn,29.17
2022-12-25T12:48:00,axn,29.00
2022-12-25T12:49:00,axn,29.11
2022-12-25T12:50:00,axn,29.35
2022-12-25T12:51:00,axn,29.26
2022-12-25T12:52:00,axn,29.32
2022-12-25T12:53:00,axn,29.06
2022-12-25T12:54:00,axn,29.47
2022-12-25T12:55:00,axn,29.23
2022-12-25T12:56:00,axn,29.29
2022-12-25T12:57:00,axn,29.10
2022-12-25T12:58:00,axn,29.11
2022-12-25T12:59:00,axn,29.12
2022-12-25T13:00:00,axn,28.94
2022-12-25T13:01:00,axn,28.97
2022-12-25T13:02:00,axn,29.10
2022-12-25T13:03:00,axn,29.00
2022-12-25T13:04:00,axn,28.96
2022-12-25T13:05:00,axn,28.87
2022-12-25T13:06:00,axn,28.85
2022-12-25T13:07:00,axn,29.05
2022-12-25T13:08:00,axn,29.25
2022-12-25T13:09:00,axn,28.78
2022-12-25T13:10:00,axn,28.56
2022-12-25T13:11:00,axn,28.68
2022-12-25T13:12:00,axn,28.31
2022-12-25T13:13:00,axn,28.31
2022-12-25T13:14:00,axn,28.47
2022-12-25T13:15:00,axn,28.50
2022-12-25T13:16:00,axn,28.28
2022-12-25T13:17:00,axn,28.34
2022-12-25T13:18:00,axn,28.41